Regional Weather Roundup
Issued by NWS

Home | Current Version | Previous Version | Graphics & Text | Print | Product List | Glossary On
Versions: 1 2 3 4 5 6 7 8 9 10 11 12 13 14 15 16 17 18 19 20 21 22 23 24 25 26 27 28 29 30 31 32 33 34 35 36 37 38 39 40 41 42 43 44 45 46 47 48 49 50
201
ASUS44 KLIX 181510
RWRLA
LOUISIANA WEATHER ROUNDUP
NATIONAL WEATHER SERVICE NEW ORLEANS LA
900 AM CST THU DEC 18 2014

NOTE: "FAIR" INDICATES FEW OR NO CLOUDS BELOW 12,000 FEET WITH NO
      SIGNIFICANT WEATHER AND/OR OBSTRUCTIONS TO VISIBILITY.
      SKY/WX - SKY CONDITION AND SIGNIFICANT WEATHER.
      TMP - AIR TEMPERATURE.    DP   - DEWPOINT TEMPERATURE.
      RH  - RELATIVE HUMIDITY.  PRES - PRESSURE.
      HX  - HEAT INDEX.         WCI  - WIND CHILL INDEX.

*  THESE STATIONS ARE NOT NWS OR FAA STATIONS AND ARE NOT UNDER
   NWS QUALITY CONTROL.

LAZ040-048-061>063-065-066-069-181600-
SOUTHEAST LOUISIANA

CITY           SKY/WX    TMP DP  RH WIND       PRES   REMARKS
N.O. AUDUBON     N/A     59  50  71 MISG        N/A
N.O. INTL ARPT PTSUNNY   58  50  75 E8        30.18F
N.O. LAKEFRONT MOSUNNY   59  50  72 E10       30.20R
N.O. DOWNTOWN* FAIR      57  48  72 E9        30.20R
SLIDELL        MOSUNNY   53  42  66 E8        30.20S
BATON ROUGE    CLOUDY    54  45  71 E12       30.17R
BOOTHVILLE     NOT AVBL
BELLE CHASSE   NOT AVBL
BOGALUSA*        N/A     51  43  73 E3        30.22R
GALLIANO*      MOSUNNY   63  54  72 MISG      30.18R
NEW ROADS*     CLOUDY    53  46  76 E7        30.16F
GONZALES*      FAIR      56  52  85 E5        30.17S
HAMMOND*       NOT AVBL
HOUMA*         SUNNY     61  54  77 NE5       30.17R
PORT FOURCHON* SUNNY     63  55  77 E9G16     30.21R

$$

LAZ041-044-053-054-181600-
SOUTHWEST LOUISIANA

CITY           SKY/WX    TMP DP  RH WIND       PRES   REMARKS
LAKE CHARLES   CLOUDY    58  53  84 E7        30.12S
LAFAYETTE      CLOUDY    54  46  74 VRB3      30.15S
PATTERSON      PTSUNNY   59  48  67 E7        30.17S
SALT POINT     NOT AVBL
NEW IBERIA     CLOUDY    57  49  74 E8        30.16R
CHENAULT AIRPK NOT AVBL

$$

LAZ027-028-181600-
CENTRAL LOUISIANA

CITY           SKY/WX    TMP DP  RH WIND       PRES   REMARKS
FORT POLK      CLOUDY    50  48  94 NE6       30.15R FOG
ALEXANDRIA INT LGT RAIN  51  45  79 N6        30.16R
ALEXANDRIA     LGT RAIN  52  45  77 N5        30.17R

$$

LAZ001-002-181600-
NORTHWEST LOUISIANA

CITY           SKY/WX    TMP DP  RH WIND       PRES   REMARKS
SHREVEPORT     CLOUDY    45  43  93 E7        30.17F
BARKSDALE AFB  NOT AVBL
DTN SHREVEPORT CLOUDY    44  41  89 E6        30.19S

$$

LAZ014-016-181600-
NORTHEAST LOUISIANA

CITY           SKY/WX    TMP DP  RH WIND       PRES   REMARKS
MONROE         CLOUDY    45  44  97 NE8       30.22R
TALLULAH       LGT RAIN  48  42  80 NE6       30.23R

$$




USA.gov is the U.S. government's official web portal to all federal, state and local government web resources and services.